Weather Roundup
Issued by NWS Chicago, IL

Home | Current Version | Previous Version | Text Only | Print | Product List | Glossary On
Versions: 1 2 3 4 5 6 7 8 9 10 11 12 13 14 15 16 17 18 19 20 21 22 23 24 25 26 27 28 29 30 31 32 33 34 35 36 37 38 39 40 41 42 43 44 45 46 47 48 49 50
000
NZUS59 KLOT 240810
HRRLOT

CHICAGO AREA WEATHER ROUNDUP
NATIONAL WEATHER SERVICE CHICAGO/ROMEOVILLE IL
300 AM CDT THU APR 24 2014

NOTE: "FAIR" INDICATES FEW OR NO CLOUDS BELOW 12,000 FEET WITH NO
SIGNIFICANT WEATHER AND/OR OBSTRUCTIONS TO VISIBILITY.

* THESE STATIONS ARE NOT UNDER NWS QUALITY CONTROL. THEY ALSO MAY NOT
  REPORT WEATHER SUCH AS PRECIPITATION OR FOG.

ILZ005-006-012>014-019>023-240900-
NORTHEAST ILLINOIS

CITY           SKY/WX    TMP DP  RH WIND       PRES   REMARKS
OHARE          CLOUDY    40  30  67 N7        30.08R
MIDWAY         CLOUDY    42  35  76 N6        30.07S
AURORA         CLOUDY    40  33  76 E10       30.05S
LANSING*       CLOUDY    42  38  87 NE8       30.05F
JOLIET*        CLOUDY    41  36  81 NE7       30.06R
WAUKEGAN       CLOUDY    36  32  85 CALM      30.10R
DUPAGE AIRPORT LGT RAIN  39  33  79 NE8       30.06S
WHEELING       CLOUDY    38  33  82 N5        30.09R
KANKAKEE*      CLOUDY    43  39  86 NE7       30.04S
MORRIS*        CLOUDY    42  35  74 NE6       30.04R
LEWIS AIRPORT* CLOUDY    40  34  77 NE12      30.06R
NORTHERLY IS     N/A     41  33  73 MISG        N/A
$$

WIZ051-052-058>065-066-070>072-240900-
SOUTHEAST WISCONSIN

CITY           SKY/WX    TMP DP  RH WIND       PRES   REMARKS
MILWAUKEE      LGT RAIN  39  27  62 NW6       30.11R
KENOSHA*       CLOUDY    37  31  78 NW5       30.11R
RACINE*        LGT RAIN  37  32  82 W6        30.12R
BURLINGTON     MIX PCPN  34  31  88 CALM      30.09F
WAUKESHA       CLOUDY    34  27  75 CALM      30.11F
WEST BEND      CLOUDY    37  18  44 CALM      30.10S
$$

INZ001>003-010>013-019-020-240900-
NORTHWEST INDIANA

CITY           SKY/WX    TMP DP  RH WIND       PRES   REMARKS
GARY*          CLOUDY    42  38  83 NE3       30.07S
MICHIGAN CITY* NOT AVBL
RENSSELAER*    NOT AVBL
VALPARAISO     LGT RAIN  43  37  79 CALM      30.07R
$$

LMZ740>746-240900-
SOUTHERN LAKE MICHIGAN

STATION/POSITION TIME  SKY/WX   TEMP WIND        PRES    VSBY
                                AIR  DIR/SP/G
                 (UTC)          (F)  (DEG/KT/KT) (MB)    (MI)
HARRISON CRIB    0800            39  350/  8/ 10   N/A
BURNHAM HARBOR   0800            41  360/  9/ 10   N/A
CALUMET HARBOR   0800            41   20/  4/  6 1018.8R
BURNS HARBOR     NOT AVBL
MICHIGAN CITY    0800            46   50/  3/  4   N/A
$$

ABBREVIATIONS USED IN REMARKS
   TC - TEMPERATURE IN CELSIUS
  WCI - WIND CHILL INDEX
   HX - HEAT INDEX
  VSB - VISIBILITY
$$



USA.gov is the U.S. government's official web portal to all federal, state and local government web resources and services.